Location: Kerguer�zec
(48.4509°N, 4.7600°W)
Time: 07:10:52
(UTC+00:00)

Cosmos 2322 Rocket - Pass Details

Date: 09 April 2020
Orbit: 834 x 849 km, 71.0° (Epoch: 01 June)

Event Time Altitude Azimuth Distance (km) Brightness Sun altitude
Rises 21:33:17 0° 336° (NNW) 3,408 6.5 -22.7°
Reaches altitude 10° 21:36:40 10° 356° (N) 2,466 5.3 -23.1°
Maximum altitude 21:40:18 17° 37° (NE) 2,001 4.2 -23.5°
Enters shadow 21:42:30 14° 64° (ENE) 2,178 4.2 -23.7°
